SIA966 WSSS-WIII

Flight info

Callsign SIA966
Flight time 1h 35m
Altitude 41000
Route ANITO8B ANITO DCT PKP DCT ALTAR DCT EGUKO
Aircraft A359/H-SDE2E3GHIJ3J4J5LM1ORWXY/LB1D1

Departure

Time 2026-05-07 14:27
Airport Singapore Changi Airport (WSSS)

Arrival

Time 2026-05-07 16:02
Airport Soekarno-Hatta International Airport (WIII)
Time Latitude Longitude Altitude Speed Heading
2026-05-07 13:41 1.35860 103.99170 12 ft 0 kts 292°
2026-05-07 14:12 1.35853 103.99187 39 ft 4 kts 292°
2026-05-07 14:12 1.35844 103.99208 37 ft 3 kts 293°
2026-05-07 14:12 1.35834 103.99227 36 ft 4 kts 326°
2026-05-07 14:13 1.35817 103.99234 39 ft 4 kts
2026-05-07 14:13 1.35795 103.99228 37 ft 1 kts 22°
2026-05-07 14:20 1.35815 103.99237 39 ft 6 kts 22°
2026-05-07 14:20 1.35864 103.99257 39 ft 9 kts 22°
2026-05-07 14:20 1.35931 103.99285 39 ft 12 kts 22°
2026-05-07 14:20 1.36015 103.99320 39 ft 14 kts 22°
2026-05-07 14:21 1.36114 103.99362 39 ft 17 kts 22°
2026-05-07 14:21 1.36208 103.99401 39 ft 13 kts 22°
2026-05-07 14:21 1.36274 103.99439 39 ft 12 kts 44°
2026-05-07 14:21 1.36322 103.99499 39 ft 8 kts 56°
2026-05-07 14:22 1.36324 103.99557 39 ft 10 kts 107°
2026-05-07 14:22 1.36296 103.99626 39 ft 9 kts 112°
2026-05-07 14:22 1.36270 103.99688 38 ft 10 kts 113°
2026-05-07 14:22 1.36254 103.99726 38 ft 0 kts 113°
2026-05-07 14:23 1.36251 103.99732 38 ft 3 kts 113°
2026-05-07 14:23 1.36241 103.99756 38 ft 0 kts 113°
2026-05-07 14:25 1.36235 103.99770 38 ft 6 kts 113°
2026-05-07 14:25 1.36213 103.99822 37 ft 10 kts 113°
2026-05-07 14:25 1.36192 103.99866 37 ft 6 kts 123°
2026-05-07 14:26 1.36157 103.99878 37 ft 7 kts 179°
2026-05-07 14:26 1.36107 103.99861 36 ft 9 kts 201°
2026-05-07 14:26 1.35972 103.99805 37 ft 48 kts 203°
2026-05-07 14:26 1.35433 103.99577 41 ft 118 kts 203°
2026-05-07 14:27 1.34486 103.99177 51 ft 175 kts 202°
2026-05-07 14:27 1.33360 103.98695 828 ft 170 kts 203°
2026-05-07 14:27 1.32276 103.98229 1602 ft 174 kts 202°
2026-05-07 14:27 1.31100 103.97734 1901 ft 199 kts 202°
2026-05-07 14:28 1.29761 103.97173 2329 ft 216 kts 202°
2026-05-07 14:28 1.28326 103.96568 2794 ft 234 kts 202°
2026-05-07 14:28 1.26747 103.95904 3224 ft 254 kts 202°
2026-05-07 14:28 1.25083 103.95213 3939 ft 261 kts 202°
2026-05-07 14:29 1.23346 103.94640 4720 ft 266 kts 189°
2026-05-07 14:29 1.21496 103.94695 5439 ft 269 kts 169°
2026-05-07 14:29 1.19655 103.95128 5865 ft 273 kts 165°
2026-05-07 14:29 1.17814 103.95612 6031 ft 274 kts 165°
2026-05-07 14:30 1.15961 103.96090 6375 ft 277 kts 166°
2026-05-07 14:30 1.14073 103.96567 7093 ft 280 kts 166°
2026-05-07 14:30 1.12178 103.97044 7956 ft 282 kts 165°
2026-05-07 14:30 1.10348 103.97766 8779 ft 285 kts 148°
2026-05-07 14:31 1.08724 103.98915 9630 ft 288 kts 141°
2026-05-07 14:31 1.07151 104.00148 10341 ft 295 kts 141°
2026-05-07 14:31 1.05477 104.01461 10704 ft 316 kts 141°
2026-05-07 14:31 1.03709 104.02884 10993 ft 336 kts 137°
2026-05-07 14:32 1.02298 104.04727 11338 ft 349 kts 116°
2026-05-07 14:32 1.01309 104.06965 11941 ft 354 kts 112°
2026-05-07 14:32 1.00365 104.09250 12577 ft 359 kts 112°
2026-05-07 14:32 0.99400 104.11565 13233 ft 362 kts 112°
2026-05-07 14:33 0.98421 104.13900 13856 ft 366 kts 111°
2026-05-07 14:33 0.97431 104.16260 14421 ft 369 kts 111°
2026-05-07 14:33 0.96434 104.18634 14987 ft 372 kts 111°
2026-05-07 14:33 0.95430 104.21021 15559 ft 375 kts 111°
2026-05-07 14:34 0.94277 104.23376 16109 ft 379 kts 118°
2026-05-07 14:34 0.92906 104.25633 16667 ft 382 kts 121°
2026-05-07 14:34 0.91488 104.27892 17212 ft 385 kts 121°
2026-05-07 14:34 0.90063 104.30167 17772 ft 387 kts 120°
2026-05-07 14:35 0.88629 104.32462 18277 ft 390 kts 120°
2026-05-07 14:35 0.87206 104.34743 18732 ft 394 kts 120°
2026-05-07 14:35 0.85754 104.37073 19172 ft 397 kts 120°
2026-05-07 14:35 0.84291 104.39422 19618 ft 400 kts 120°
2026-05-07 14:36 0.82813 104.41795 20061 ft 403 kts 120°
2026-05-07 14:36 0.81311 104.44175 20501 ft 407 kts 122°
2026-05-07 14:36 0.79669 104.46496 20958 ft 410 kts 124°
2026-05-07 14:36 0.77984 104.48808 21388 ft 414 kts 124°
2026-05-07 14:37 0.76291 104.51149 21825 ft 417 kts 124°
2026-05-07 14:37 0.72673 104.55729 22697 ft 426 kts 136°
2026-05-07 14:37 0.70177 104.57371 23129 ft 433 kts 154°
2026-05-07 14:38 0.67315 104.58373 23550 ft 438 kts 162°
2026-05-07 14:38 0.64374 104.59221 23901 ft 441 kts 162°
2026-05-07 14:38 0.61413 104.60074 24270 ft 444 kts 162°
2026-05-07 14:38 0.58442 104.60940 24655 ft 446 kts 162°
2026-05-07 14:39 0.55493 104.61807 25066 ft 448 kts 162°
2026-05-07 14:39 0.52455 104.62705 25493 ft 451 kts 162°
2026-05-07 14:39 0.49476 104.63588 25928 ft 453 kts 162°
2026-05-07 14:39 0.46442 104.64489 26382 ft 456 kts 162°
2026-05-07 14:40 0.43388 104.65397 26851 ft 459 kts 162°
2026-05-07 14:40 0.40317 104.66304 27293 ft 462 kts 162°
2026-05-07 14:40 0.37225 104.67217 27764 ft 465 kts 162°
2026-05-07 14:40 0.34117 104.68136 28232 ft 468 kts 162°
2026-05-07 14:41 0.30980 104.69065 28684 ft 471 kts 162°
2026-05-07 14:41 0.27822 104.69999 29125 ft 474 kts 162°
2026-05-07 14:41 0.24655 104.70937 29552 ft 477 kts 162°
2026-05-07 14:41 0.21454 104.71885 29973 ft 480 kts 162°
2026-05-07 14:42 0.18242 104.72836 30331 ft 483 kts 162°
2026-05-07 14:42 0.15016 104.73791 30681 ft 485 kts 162°
2026-05-07 14:42 0.11777 104.74758 31031 ft 488 kts 162°
2026-05-07 14:42 0.08560 104.75713 31386 ft 490 kts 162°
2026-05-07 14:43 0.05281 104.76685 31727 ft 492 kts 162°
2026-05-07 14:43 0.01998 104.77658 32053 ft 494 kts 162°
2026-05-07 14:43 -0.01304 104.78638 32381 ft 496 kts 162°
2026-05-07 14:43 -0.04628 104.79624 32699 ft 498 kts 162°
2026-05-07 14:44 -0.07954 104.80612 32999 ft 500 kts 162°
2026-05-07 14:44 -0.11303 104.81606 33287 ft 502 kts 162°
2026-05-07 14:44 -0.14657 104.82603 33564 ft 504 kts 162°
2026-05-07 14:44 -0.18032 104.83605 33904 ft 505 kts 162°
2026-05-07 14:45 -0.21389 104.84602 34274 ft 503 kts 162°
2026-05-07 14:45 -0.24737 104.85600 34649 ft 501 kts 162°
2026-05-07 14:45 -0.28005 104.86810 34985 ft 499 kts 154°
2026-05-07 14:45 -0.31034 104.88469 35338 ft 497 kts 147°
2026-05-07 14:46 -0.32967 104.89699 35552 ft 496 kts 146°
2026-05-07 14:46 -0.35839 104.91613 35881 ft 495 kts 145°
2026-05-07 14:46 -0.39603 104.94194 36338 ft 494 kts 144°
2026-05-07 14:46 -0.42430 104.96143 36655 ft 493 kts 144°
2026-05-07 14:47 -0.44342 104.97458 36870 ft 493 kts 144°
2026-05-07 14:47 -0.47130 104.99366 37162 ft 492 kts 145°
2026-05-07 14:47 -0.49958 105.01290 37482 ft 492 kts 145°
2026-05-07 14:47 -0.52785 105.03208 37789 ft 491 kts 145°
2026-05-07 14:48 -0.55612 105.05121 38107 ft 490 kts 145°
2026-05-07 14:48 -0.58436 105.07031 38413 ft 489 kts 145°
2026-05-07 14:48 -0.61252 105.08935 38672 ft 489 kts 145°
2026-05-07 14:48 -0.64071 105.10841 38904 ft 488 kts 145°
2026-05-07 14:49 -0.66880 105.12741 39141 ft 488 kts 145°
2026-05-07 14:49 -0.69689 105.14641 39370 ft 487 kts 145°
2026-05-07 14:49 -0.72498 105.16542 39586 ft 486 kts 145°
2026-05-07 14:49 -0.75263 105.18413 39802 ft 486 kts 145°
2026-05-07 14:50 -0.78063 105.20308 40011 ft 486 kts 145°
2026-05-07 14:50 -0.80858 105.22200 40226 ft 485 kts 145°
2026-05-07 14:50 -0.83652 105.24090 40454 ft 484 kts 145°
2026-05-07 14:50 -0.86441 105.25977 40627 ft 484 kts 145°
2026-05-07 14:51 -0.89232 105.27866 40789 ft 484 kts 145°
2026-05-07 14:51 -0.92029 105.29759 40869 ft 485 kts 145°
2026-05-07 14:51 -0.97605 105.33533 40878 ft 484 kts 145°
2026-05-07 14:52 -1.03182 105.37308 40871 ft 484 kts 145°
2026-05-07 14:52 -1.08726 105.41060 40871 ft 484 kts 145°
2026-05-07 14:53 -1.14303 105.44835 40873 ft 484 kts 145°
2026-05-07 14:53 -1.19879 105.48610 40873 ft 484 kts 145°
2026-05-07 14:54 -1.25460 105.52388 40874 ft 484 kts 145°
2026-05-07 14:54 -1.31039 105.56164 40875 ft 484 kts 145°
2026-05-07 14:55 -1.36615 105.59940 40874 ft 485 kts 145°
2026-05-07 14:55 -1.42209 105.63727 40876 ft 485 kts 145°
2026-05-07 14:56 -1.47798 105.67512 40876 ft 485 kts 145°
2026-05-07 14:56 -1.53389 105.71298 40875 ft 486 kts 145°
2026-05-07 14:57 -1.58985 105.75087 40880 ft 486 kts 145°
2026-05-07 14:57 -1.64594 105.78886 40879 ft 487 kts 145°
2026-05-07 14:58 -1.70203 105.82685 40881 ft 487 kts 145°
2026-05-07 14:58 -1.75770 105.86456 40881 ft 487 kts 145°
2026-05-07 14:59 -1.81376 105.90252 40880 ft 487 kts 145°
2026-05-07 14:59 -1.86980 105.94049 40881 ft 487 kts 145°
2026-05-07 15:00 -1.92589 105.97849 40881 ft 487 kts 145°
2026-05-07 15:00 -1.98204 106.01653 40879 ft 487 kts 145°
2026-05-07 15:01 -2.03822 106.05460 40875 ft 487 kts 145°
2026-05-07 15:01 -2.09433 106.09262 40878 ft 487 kts 145°
2026-05-07 15:02 -2.15004 106.13044 40883 ft 487 kts 144°
2026-05-07 15:02 -2.20248 106.17339 40885 ft 487 kts 137°
2026-05-07 15:03 -2.21768 106.18675 40882 ft 487 kts 137°
2026-05-07 15:03 -2.23563 106.20270 40875 ft 487 kts 137°
2026-05-07 15:04 -2.26233 106.22662 40883 ft 487 kts 137°
2026-05-07 15:05 -2.31274 106.27191 40878 ft 487 kts 137°
2026-05-07 15:05 -2.36291 106.31688 40882 ft 487 kts 137°
2026-05-07 15:06 -2.41354 106.36215 40883 ft 488 kts 137°
2026-05-07 15:06 -2.46417 106.40740 40883 ft 488 kts 137°
2026-05-07 15:07 -2.51476 106.45262 40881 ft 488 kts 137°
2026-05-07 15:07 -2.56533 106.49783 40882 ft 488 kts 137°
2026-05-07 15:08 -2.61598 106.54312 40884 ft 488 kts 137°
2026-05-07 15:08 -2.66656 106.58836 40881 ft 488 kts 137°
2026-05-07 15:09 -2.71722 106.63366 40882 ft 488 kts 137°
2026-05-07 15:09 -2.76750 106.67863 40879 ft 487 kts 137°
2026-05-07 15:10 -2.81804 106.72384 40880 ft 487 kts 137°
2026-05-07 15:10 -2.86860 106.76907 40882 ft 487 kts 137°
2026-05-07 15:11 -2.91905 106.81422 40878 ft 487 kts 137°
2026-05-07 15:11 -2.96951 106.85938 40881 ft 486 kts 137°
2026-05-07 15:12 -3.01994 106.90452 40879 ft 487 kts 137°
2026-05-07 15:12 -3.07042 106.94969 40876 ft 487 kts 137°
2026-05-07 15:13 -3.12092 106.99492 40875 ft 487 kts 137°
2026-05-07 15:13 -3.17108 107.03985 40876 ft 487 kts 136°
2026-05-07 15:14 -3.22150 107.08503 40876 ft 486 kts 137°
2026-05-07 15:14 -3.27196 107.13019 40873 ft 486 kts 136°
2026-05-07 15:15 -3.32236 107.17532 40872 ft 486 kts 137°
2026-05-07 15:15 -3.37269 107.22041 40873 ft 486 kts 136°
2026-05-07 15:16 -3.42304 107.26555 40871 ft 485 kts 137°
2026-05-07 15:16 -3.47337 107.31063 40874 ft 485 kts 136°
2026-05-07 15:17 -3.52342 107.35550 40870 ft 485 kts 136°
2026-05-07 15:17 -3.57365 107.40052 40871 ft 486 kts 136°
2026-05-07 15:18 -3.62414 107.44580 40870 ft 486 kts 137°
2026-05-07 15:18 -3.67452 107.49097 40870 ft 486 kts 137°
2026-05-07 15:19 -3.72343 107.53765 40871 ft 485 kts 128°
2026-05-07 15:19 -3.76553 107.59033 40871 ft 485 kts 127°
2026-05-07 15:20 -3.80670 107.64311 40869 ft 485 kts 127°
2026-05-07 15:20 -3.84814 107.69650 40872 ft 486 kts 127°
2026-05-07 15:21 -3.88937 107.74970 40870 ft 486 kts 127°
2026-05-07 15:21 -3.93087 107.80328 40873 ft 487 kts 127°
2026-05-07 15:22 -3.97235 107.85686 40869 ft 487 kts 127°
2026-05-07 15:22 -4.01011 107.90565 40870 ft 488 kts 127°
2026-05-07 15:23 -4.05169 107.95937 40869 ft 488 kts 126°
2026-05-07 15:23 -4.09333 108.01317 40866 ft 488 kts 126°
2026-05-07 15:24 -4.13497 108.06700 40870 ft 489 kts 127°
2026-05-07 15:24 -4.17660 108.12082 40870 ft 489 kts 127°
2026-05-07 15:25 -4.21828 108.17472 40872 ft 489 kts 127°
2026-05-07 15:25 -4.26001 108.22868 40872 ft 490 kts 127°
2026-05-07 15:26 -4.30149 108.28234 40873 ft 490 kts 127°
2026-05-07 15:26 -4.34326 108.33638 40874 ft 491 kts 127°
2026-05-07 15:27 -4.38500 108.39038 40872 ft 491 kts 126°
2026-05-07 15:27 -4.43316 108.43902 40875 ft 492 kts 143°
2026-05-07 15:28 -4.49389 108.47036 40876 ft 494 kts 163°
2026-05-07 15:28 -4.56154 108.47938 40304 ft 490 kts 183°
2026-05-07 15:29 -4.59527 108.47484 39593 ft 492 kts 195°
2026-05-07 15:29 -4.62786 108.46434 38911 ft 494 kts 200°
2026-05-07 15:29 -4.66020 108.45244 38178 ft 496 kts 200°
2026-05-07 15:29 -4.69275 108.44050 37377 ft 498 kts 200°
2026-05-07 15:30 -4.72498 108.42880 36604 ft 501 kts 200°
2026-05-07 15:30 -4.75790 108.41693 35905 ft 502 kts 200°
2026-05-07 15:30 -4.79089 108.40509 35639 ft 508 kts 200°
2026-05-07 15:30 -4.82437 108.39309 35394 ft 512 kts 200°
2026-05-07 15:31 -4.85798 108.38105 35152 ft 513 kts 200°
2026-05-07 15:31 -4.89167 108.36899 34922 ft 513 kts 200°
2026-05-07 15:31 -4.92531 108.35696 34693 ft 514 kts 200°
2026-05-07 15:31 -4.95900 108.34490 34452 ft 514 kts 200°
2026-05-07 15:32 -4.99271 108.33284 34221 ft 515 kts 200°
2026-05-07 15:32 -5.02651 108.32075 34019 ft 516 kts 200°
2026-05-07 15:32 -5.06033 108.30864 33779 ft 516 kts 200°
2026-05-07 15:32 -5.09425 108.29650 33516 ft 517 kts 200°
2026-05-07 15:33 -5.12814 108.28437 33261 ft 517 kts 200°
2026-05-07 15:33 -5.16204 108.27223 33014 ft 517 kts 200°
2026-05-07 15:33 -5.19599 108.26008 32761 ft 518 kts 199°
2026-05-07 15:33 -5.23000 108.24790 32515 ft 518 kts 199°
2026-05-07 15:34 -5.26355 108.23588 32274 ft 518 kts 199°
2026-05-07 15:34 -5.29754 108.22371 32034 ft 519 kts 199°
2026-05-07 15:34 -5.33150 108.21155 31794 ft 519 kts 199°
2026-05-07 15:34 -5.36548 108.19938 31552 ft 519 kts 199°
2026-05-07 15:35 -5.39945 108.18721 31325 ft 518 kts 199°
2026-05-07 15:35 -5.43332 108.17508 31088 ft 516 kts 199°
2026-05-07 15:35 -5.45569 108.16706 30950 ft 515 kts 199°
2026-05-07 15:35 -5.50080 108.15090 30880 ft 513 kts 199°
2026-05-07 15:36 -5.55663 108.13089 30879 ft 512 kts 199°
2026-05-07 15:36 -5.62384 108.10680 30879 ft 512 kts 199°
2026-05-07 15:37 -5.69083 108.08278 30878 ft 511 kts 199°
2026-05-07 15:37 -5.72365 108.07101 30881 ft 499 kts 199°
2026-05-07 15:37 -5.75587 108.05944 30889 ft 486 kts 199°
2026-05-07 15:38 -5.78734 108.04815 30889 ft 473 kts 199°
2026-05-07 15:38 -5.81801 108.03715 30888 ft 464 kts 199°
2026-05-07 15:38 -5.87871 108.01537 30882 ft 463 kts 199°
2026-05-07 15:39 -5.93593 107.98600 30882 ft 464 kts 218°
2026-05-07 15:39 -5.95934 107.96368 30879 ft 464 kts 230°
2026-05-07 15:39 -5.97779 107.93718 30886 ft 464 kts 241°
2026-05-07 15:40 -5.99066 107.90748 30865 ft 465 kts 252°
2026-05-07 15:40 -5.99693 107.87584 30665 ft 460 kts 266°
2026-05-07 15:40 -5.99492 107.84383 30013 ft 461 kts 282°
2026-05-07 15:40 -5.98507 107.81316 29293 ft 462 kts 291°
2026-05-07 15:41 -5.97542 107.78239 28707 ft 461 kts 284°
2026-05-07 15:41 -5.96941 107.75096 28204 ft 457 kts 278°
2026-05-07 15:41 -5.96596 107.71934 27701 ft 454 kts 275°
2026-05-07 15:41 -5.96405 107.68810 27196 ft 451 kts 273°
2026-05-07 15:42 -5.96296 107.65633 26685 ft 448 kts 272°
2026-05-07 15:42 -5.96236 107.62556 26222 ft 445 kts 271°
2026-05-07 15:42 -5.96205 107.59457 25742 ft 442 kts 271°
2026-05-07 15:42 -5.96189 107.56388 25270 ft 439 kts 271°
2026-05-07 15:43 -5.96181 107.53323 24817 ft 436 kts 270°
2026-05-07 15:43 -5.96176 107.50290 24360 ft 433 kts 270°
2026-05-07 15:43 -5.96174 107.47279 23920 ft 429 kts 270°
2026-05-07 15:43 -5.96172 107.44295 23473 ft 426 kts 270°
2026-05-07 15:44 -5.96170 107.41325 22932 ft 423 kts 270°
2026-05-07 15:44 -5.96169 107.38382 22403 ft 420 kts 270°
2026-05-07 15:44 -5.96167 107.35460 21899 ft 417 kts 270°
2026-05-07 15:44 -5.96166 107.32562 21397 ft 413 kts 270°
2026-05-07 15:45 -5.96167 107.29686 20901 ft 410 kts 270°
2026-05-07 15:45 -5.96163 107.26833 20403 ft 407 kts 270°
2026-05-07 15:45 -5.96157 107.24003 19932 ft 404 kts 270°
2026-05-07 15:45 -5.96151 107.21194 19454 ft 401 kts 270°
2026-05-07 15:46 -5.96140 107.15625 18531 ft 395 kts 270°
2026-05-07 15:46 -5.96135 107.12915 18079 ft 392 kts 269°
2026-05-07 15:46 -5.96131 107.10188 17550 ft 389 kts 269°
2026-05-07 15:47 -5.96127 107.07473 17036 ft 386 kts 269°
2026-05-07 15:47 -5.96122 107.04755 16528 ft 383 kts 269°
2026-05-07 15:47 -5.96118 107.02124 16042 ft 380 kts 269°
2026-05-07 15:47 -5.96114 106.99474 15561 ft 377 kts 270°
2026-05-07 15:48 -5.96111 106.96855 15080 ft 374 kts 269°
2026-05-07 15:48 -5.96372 106.94276 14772 ft 366 kts 259°
2026-05-07 15:48 -5.96846 106.91839 14481 ft 344 kts 257°
2026-05-07 15:48 -5.97334 106.89537 13845 ft 332 kts 257°
2026-05-07 15:49 -5.97825 106.87288 13002 ft 327 kts 257°
2026-05-07 15:49 -5.98317 106.85072 12155 ft 323 kts 257°
2026-05-07 15:49 -5.98807 106.82880 11322 ft 320 kts 256°
2026-05-07 15:49 -5.99295 106.80711 10498 ft 316 kts 256°
2026-05-07 15:50 -5.99778 106.78565 9719 ft 313 kts 256°
2026-05-07 15:50 -6.00258 106.76442 8851 ft 310 kts 256°
2026-05-07 15:50 -6.00731 106.74343 8116 ft 304 kts 256°
2026-05-07 15:50 -6.01191 106.72307 7745 ft 299 kts 256°
2026-05-07 15:51 -6.01654 106.70261 7421 ft 300 kts 256°
2026-05-07 15:51 -6.02112 106.68234 7184 ft 292 kts 256°
2026-05-07 15:51 -6.02551 106.66287 7074 ft 280 kts 256°
2026-05-07 15:51 -6.02973 106.64418 6954 ft 269 kts 256°
2026-05-07 15:52 -6.03385 106.62590 6661 ft 267 kts 256°
2026-05-07 15:52 -6.03795 106.60779 6373 ft 265 kts 256°
2026-05-07 15:52 -6.04208 106.58978 6057 ft 264 kts 255°
2026-05-07 15:52 -6.04785 106.57239 5767 ft 260 kts 247°
2026-05-07 15:53 -6.05457 106.55564 5454 ft 258 kts 246°
2026-05-07 15:53 -6.06132 106.53911 5157 ft 257 kts 246°
2026-05-07 15:53 -6.06806 106.52258 4849 ft 255 kts 246°
2026-05-07 15:53 -6.07477 106.50605 4536 ft 255 kts 246°
2026-05-07 15:54 -6.08140 106.48965 4226 ft 253 kts 246°
2026-05-07 15:54 -6.08798 106.47337 3997 ft 248 kts 246°
2026-05-07 15:54 -6.09435 106.45755 3877 ft 238 kts 246°
2026-05-07 15:54 -6.10047 106.44243 3767 ft 229 kts 246°
2026-05-07 15:55 -6.10808 106.42892 3569 ft 219 kts 225°
2026-05-07 15:55 -6.12105 106.42206 3212 ft 211 kts 184°
2026-05-07 15:55 -6.13537 106.42311 2918 ft 204 kts 166°
2026-05-07 15:55 -6.14925 106.42583 2575 ft 204 kts 166°
2026-05-07 15:56 -6.16266 106.42972 2236 ft 201 kts 153°
2026-05-07 15:56 -6.17244 106.43865 2045 ft 182 kts 119°
2026-05-07 15:56 -6.17546 106.44997 2004 ft 158 kts 92°
2026-05-07 15:56 -6.17539 106.46029 2004 ft 141 kts 88°
2026-05-07 15:57 -6.17504 106.47002 2004 ft 137 kts 88°
2026-05-07 15:57 -6.17474 106.47950 2000 ft 135 kts 88°
2026-05-07 15:57 -6.17373 106.48895 2002 ft 141 kts 79°
2026-05-07 15:57 -6.17082 106.49910 1990 ft 158 kts 72°
2026-05-07 15:58 -6.16695 106.50967 1988 ft 163 kts 70°
2026-05-07 15:58 -6.16298 106.52030 1990 ft 162 kts 72°
2026-05-07 15:58 -6.15894 106.53091 1988 ft 162 kts 70°
2026-05-07 15:58 -6.15482 106.54135 1991 ft 163 kts 69°
2026-05-07 15:59 -6.15063 106.55189 1919 ft 162 kts 69°
2026-05-07 15:59 -6.14661 106.56204 1709 ft 151 kts 69°
2026-05-07 15:59 -6.14283 106.57157 1511 ft 142 kts 69°
2026-05-07 15:59 -6.13930 106.58046 1357 ft 134 kts 70°
2026-05-07 16:00 -6.13587 106.58913 1174 ft 135 kts 69°
2026-05-07 16:00 -6.13242 106.59782 1002 ft 135 kts 70°
2026-05-07 16:00 -6.12892 106.60666 818 ft 138 kts 70°
2026-05-07 16:00 -6.12537 106.61564 648 ft 140 kts 69°
2026-05-07 16:01 -6.12178 106.62482 472 ft 142 kts 69°
2026-05-07 16:01 -6.11809 106.63409 316 ft 144 kts 69°
2026-05-07 16:01 -6.11429 106.64340 124 ft 144 kts 68°
2026-05-07 16:01 -6.11073 106.65247 44 ft 126 kts 68°
2026-05-07 16:02 -6.10816 106.65891 49 ft 73 kts 68°
2026-05-07 16:02 -6.10699 106.66184 44 ft 19 kts 68°
2026-05-07 16:02 -6.10653 106.66302 45 ft 0 kts 70°
2026-05-07 16:02 -6.10637 106.66357 46 ft 20 kts 77°
2026-05-07 16:03 -6.10635 106.66503 44 ft 22 kts 98°
2026-05-07 16:03 -6.10648 106.66577 44 ft 0 kts 101°
2026-05-07 16:03 -6.10649 106.66582 44 ft 2 kts 101°
2026-05-07 16:03 -6.10659 106.66619 44 ft 8 kts 109°
2026-05-07 16:04 -6.10699 106.66666 44 ft 10 kts 148°
2026-05-07 16:04 -6.10768 106.66686 44 ft 9 kts 186°
2026-05-07 16:04 -6.10810 106.66638 44 ft 10 kts 246°
2026-05-07 16:04 -6.10841 106.66562 44 ft 13 kts 248°
2026-05-07 16:05 -6.10876 106.66474 44 ft 15 kts 248°
2026-05-07 16:05 -6.10916 106.66372 44 ft 17 kts 248°
2026-05-07 16:05 -6.10961 106.66260 45 ft 18 kts 249°
2026-05-07 16:05 -6.11009 106.66138 45 ft 19 kts 248°
2026-05-07 16:06 -6.11061 106.66008 45 ft 21 kts 248°
2026-05-07 16:06 -6.11116 106.65871 45 ft 22 kts 248°
2026-05-07 16:06 -6.11173 106.65728 45 ft 18 kts 248°
2026-05-07 16:06 -6.11193 106.65677 45 ft 9 kts 248°
2026-05-07 16:07 -6.11223 106.65626 45 ft 7 kts 216°
2026-05-07 16:07 -6.11261 106.65625 45 ft 4 kts 166°
2026-05-07 16:07 -6.11294 106.65636 45 ft 6 kts 158°
2026-05-07 16:07 -6.11335 106.65653 45 ft 7 kts 157°
2026-05-07 16:08 -6.11387 106.65682 46 ft 10 kts 143°
2026-05-07 16:08 -6.11414 106.65748 45 ft 12 kts 96°
2026-05-07 16:08 -6.11423 106.65809 44 ft 8 kts 98°
2026-05-07 16:08 -6.11430 106.65835 44 ft 0 kts 112°
2026-05-07 16:10 -6.11436 106.65847 44 ft 5 kts 118°
2026-05-07 16:10 -6.11468 106.65876 44 ft 8 kts 150°
2026-05-07 16:11 -6.11490 106.65887 44 ft 9 kts 153°
2026-05-07 16:11 -6.11555 106.65920 44 ft 12 kts 153°
2026-05-07 16:11 -6.11616 106.65949 44 ft 8 kts 156°
2026-05-07 16:11 -6.11675 106.65973 44 ft 10 kts 158°
2026-05-07 16:12 -6.11733 106.65997 44 ft 6 kts 158°
2026-05-07 16:12 -6.11755 106.66006 44 ft 4 kts 158°
2026-05-07 16:12 -6.11761 106.66009 44 ft 0 kts 158°
2026-05-07 16:14 -6.11775 106.66014 44 ft 7 kts 158°
2026-05-07 16:14 -6.11802 106.66053 44 ft 6 kts 94°
2026-05-07 16:14 -6.11791 106.66101 44 ft 8 kts 85°
2026-05-07 16:14 -6.11826 106.66141 44 ft 8 kts 155°
2026-05-07 16:15 -6.11863 106.66155 44 ft 0 kts 159°
2026-05-07 16:15 -6.11865 106.66156 44 ft 1 kts 159°
2026-05-07 16:15 -6.11873 106.66159 44 ft 0 kts 159°